星链-1194 (STARLINK-1194 )

导读

STARLINK-1194是美国SpaceX公司星链(Starlink)计划的卫星,于2020年1月29日发射升空。星链项目旨在构建全球卫星互联网星座,为全球偏远地区、海洋、航空等场景提供高速宽带接入服务。 作为星链早期部署的卫星之一,STARLINK-1194运行在近地轨道,依托星链大规模星座组网,承担用户数据转发、信号中继功能,助力星链逐步完成全球覆盖布局,推动卫星互联网从概念走向商业化落地。

Basic Information
目录编号:
45101
目录名称:
STARLINK-1194
国际标识:
2020-006BK
轨道中心:
EARTH
卫星名称:
星链-1194
卫星全名:
星链-1194 (STARLINK-1194 )
卫星状态:
已陨落 最后检测时间 2024-07-30
发射日期:
2020-01-29 UTC
国别 :
美国 (US)
星等 :
--
Orbit Information
数据来源 国际轨道数据
星历时间: 2024-07-30T10:43:36+0800
轨道信息已过期684天
半长轴: 6526.722km
偏心率: 0.0008006
轨道倾角: 53.029°
近地点辐角 308.819°
升交点赤经 289.278°
平近点角 150.762°
近地点: 143.361km
远地点: 153.813km
周期: 87.459分钟
每日圈数: 16.464939
Detailed Information
固有亮度:
5
最大亮度:
2.5
卫星平台:
Starlink V1.0
覆盖范围:
全球
运营商:
太空探索技术公司
运营商所在国:
美国
制造商(研发单位):
太空探索技术公司
制造商所在国:
美国
使用方式:
暂无
Satellite Introduction
星链(Starlink)计划是由太空探索技术公司(SpaceX)提出的一个巨型低轨卫星互联网星座项目,计划在2019年至2024年间在太空搭建由约1.2万颗卫星组成的“星链”网络,其中1584颗将部署在地球上空550千米处的近地轨道,并从2020年开始工作。该卫星仍在工作。